Flag for Germany Weather past 2 weeks in Homburg (Saar), Saarland, Germany

Now
52 °F

Light rain. Partly cloudy.


Feels Like: 44 °F
Forecast: 38 / 45 °F
Wind: 30 mph from Southwest

Location: Saarbruecken / Ensheim

Current Time: Mar 31, 2015 at 6:24:31 AM

Latest Report: Mar 31, 2015 at 5:20 AM


Visibility: N/A

Pressure: 29.62 "Hg

Humidity: 88%

Dew point: 48 °F

Location of Homburg (Saar)Location

Historic Weather in Homburg (Saar) — Graph

°F

Homburg (Saar) temperature yesterday

Maximum temperature yesterday: 50 °F (at 3:20 PM)
Minimum temperature yesterday: 43 °F (at 12:20 PM)
Average temperature yesterday: 46 °F

Past Weeks' High & Low Weather Summary

 TemperatureHumidityPressure
High64 °F (Mar 18, 2:20 PM)100% (Mar 21, 8:50 AM)30.30 "Hg (Mar 21, 8:50 AM)
Low32 °F (Mar 21, 6:20 AM)32% (Mar 18, 3:50 PM)29.53 "Hg (Mar 29, 9:50 PM)
Average45 °F74%29.99 "Hg
* Reported Mar 16 3:20 AM — Mar 31 4:50 AM, Homburg (Saar), Weather by CustomWeather, © 2015

Note: Actual official high and low records may vary slightly from our data, if they occured in-between our weather recording intervals... More about our weather records

Advertising

Homburg (Saar) weather history for previous 24 hours

 ConditionsComfort  
Time TempWeatherWind HumidityBarometerVisibility
4:50 AM
Tue, Mar 31
50 °FLight rain. Passing clouds.26 mph94%29.62 "Hg5 mi
4:20 AM50 °FLight rain. Passing clouds.25 mph94%29.62 "Hg5 mi
3:50 AM48 °FLight rain. Fog.23 mph94%29.65 "Hg2 mi
3:20 AM46 °FLight rain. Fog.22 mph93%29.68 "Hg2 mi
2:50 AM46 °FLight rain. Fog.23 mph93%29.71 "Hg3 mi
2:20 AM45 °FLight rain. Passing clouds.20 mph93%29.74 "Hg5 mi
1:20 AM45 °FPartly cloudy.17 mph81%29.80 "HgN/A
12:50 AM45 °FLight rain. Passing clouds.15 mph76%29.83 "HgN/A
12:20 AM45 °FLight rain. Mostly cloudy.14 mph76%29.83 "HgN/A
11:50 PM
Mon, Mar 30
45 °FLight rain. Clear.16 mph66%29.86 "HgN/A
11:20 PM45 °FOvercast.12 mph66%29.86 "HgN/A
10:50 PM45 °FOvercast.12 mph61%29.89 "HgN/A
10:20 PM45 °FPassing clouds.8 mph61%29.92 "HgN/A
9:50 PM45 °FPassing clouds.7 mph57%29.92 "HgN/A
9:20 PM45 °FPassing clouds.13 mph57%29.92 "HgN/A
8:50 PM45 °FSunny.15 mph57%29.92 "Hg10 mi
8:20 PM45 °FPartly sunny.16 mph57%29.92 "HgN/A
7:50 PM46 °FPartly sunny.18 mph53%29.92 "HgN/A
7:20 PM48 °FScattered clouds.22 mph50%29.92 "HgN/A
6:50 PM48 °FScattered clouds.22 mph50%29.89 "HgN/A
6:20 PM48 °FScattered clouds.18 mph50%29.89 "HgN/A
5:50 PM48 °FBroken clouds.18 mph50%29.86 "HgN/A
5:20 PM48 °FBroken clouds.22 mph50%29.86 "HgN/A
4:50 PM50 °FBroken clouds.22 mph47%29.86 "HgN/A
4:20 PM48 °FBroken clouds.22 mph50%29.83 "HgN/A
3:50 PM48 °FBroken clouds.20 mph54%29.83 "HgN/A
3:20 PM50 °FBroken clouds.18 mph50%29.83 "HgN/A
2:50 PM48 °FBroken clouds.18 mph58%29.80 "HgN/A
2:20 PM46 °FSprinkles. Broken clouds.15 mph62%29.80 "HgN/A
1:50 PM46 °FSprinkles. Broken clouds.17 mph62%29.80 "HgN/A
1:20 PM48 °FScattered clouds.22 mph58%29.77 "HgN/A
12:50 PM46 °FScattered clouds.18 mph71%29.77 "HgN/A
12:20 PM43 °FBroken clouds.18 mph87%29.77 "HgN/A
11:50 AM48 °FBroken clouds.23 mph62%29.71 "HgN/A
11:20 AM48 °FBroken clouds.23 mph62%29.71 "HgN/A
10:50 AM48 °FScattered clouds.17 mph66%29.68 "HgN/A
10:20 AM45 °FSprinkles. Partly sunny.22 mph81%29.68 "HgN/A
9:50 AM46 °FPartly sunny.22 mph76%29.68 "HgN/A
9:20 AM46 °FScattered clouds.18 mph82%29.65 "HgN/A
8:50 AM45 °FPartly sunny.17 mph87%29.65 "HgN/A
8:20 AM45 °FSprinkles. Partly sunny.12 mph87%29.62 "HgN/A
7:50 AM45 °FSprinkles. Mostly cloudy.18 mph87%29.62 "HgN/A
7:20 AM45 °FMostly cloudy.16 mph87%29.59 "HgN/A
6:50 AM45 °FMostly cloudy.17 mph87%29.59 "HgN/A
6:20 AM45 °FLight rain. Mostly cloudy.17 mph87%29.56 "HgN/A
Weather by CustomWeather, © 2015

See weather overviewHow to use our weather pages